Regional Weather Roundup
Issued by NWS

Home | Current Version | Previous Version | Graphics & Text | Print | Product List | Glossary On
Versions: 1 2 3 4 5 6 7 8 9 10 11 12 13 14 15 16 17 18 19 20 21 22 23 24 25 26 27
000
ASUS45 KPSR 181510
RWRAZ

ARIZONA HOURLY REGIONAL WEATHER ROUNDUP
NATIONAL WEATHER SERVICE PHOENIX AZ
800 AM MST WED OCT 18 2017

NOTE: FAIR INDICATES FEW OR NO CLOUDS BELOW 12,000 FEET WITH NO
SIGNIFICANT WEATHER AND/OR OBSTRUCTIONS TO VISIBILITY.

AZZ001>003-036-181600-
NORTHWEST ARIZONA

CITY           SKY/WX    TMP DP  RH WIND       PRES   REMARKS
BULLHEAD CITY  PTSUNNY   68  25  19 CALM      29.95R
KINGMAN        MOSUNNY   62  29  28 SE5       30.09R
$$

AZZ004>008-015-016-018-181600-
NORTH CENTRAL ARIZONA

CITY           SKY/WX    TMP DP  RH WIND       PRES   REMARKS
GRAND CANYON   SUNNY     45  24  43 NE3       30.28R
WILLIAMS       SUNNY     50  28  43 S7        30.28R
PRESCOTT       SUNNY     56  34  43 CALM      30.19R
FLAGSTAFF      SUNNY     46  26  45 NE3       30.30R
PAYSON           N/A     61  34  36 CALM      30.21R
PAGE           MOSUNNY   55  21  26 W3        30.17R
$$

AZZ009>014-017-181600-
NORTHEAST ARIZONA

CITY           SKY/WX    TMP DP  RH WIND       PRES   REMARKS
WINSLOW        SUNNY     49  21  33 E6        30.22R
SAINT JOHNS    SUNNY     54  33  45 CALM      30.24R
WINDOW ROCK    MOSUNNY   42  10  27 CALM      30.31R
SHOW LOW       SUNNY     55  37  50 CALM      30.29R
$$

AZZ540-542>544-546-548-181600-
GREATER PHOENIX AREA

CITY           SKY/WX    TMP DP  RH WIND       PRES   REMARKS
PHOENIX        MOSUNNY   74  48  39 E8        29.94R
BUCKEYE        SUNNY     68  41  37 CALM      29.96R
GLENDALE       MOSUNNY   70  43  37 CALM      29.96R
LUKE AFB       SUNNY     72  38  30 CALM      29.94R
DEER VALLEY    SUNNY     76  41  28 NE6       29.95R
SCOTTSDALE     SUNNY     70  48  45 CALM      29.97R
MESA-FALCON    MOSUNNY   73  45  35 N3        29.97R
MESA-GATEWAY   MOSUNNY   68  45  42 E6        29.97R
CHANDLER       PTSUNNY   68  46  45 CALM      29.96R
$$

AZZ539-553-181600-
SOUTHWEST MARICOPA COUNTY AND PINAL COUNTY

CITY           SKY/WX    TMP DP  RH WIND       PRES   REMARKS
CASA GRANDE    NOT AVBL
GILA BEND      MOSUNNY   75  39  27 S2        29.93R
$$

AZZ503-504-507>509-181600-
SOUTHEAST ARIZONA

CITY           SKY/WX    TMP DP  RH WIND       PRES   REMARKS
TUCSON         SUNNY     71  42  35 SE5       30.06R
DAVIS-MONTHAN  MOSUNNY   70  39  32 E3        30.04R
RYAN FIELD     SUNNY     66  39  37 E3        30.04R
NOGALES        MOSUNNY   67  45  45 CALM      30.12R
SIERRA VISTA   PTSUNNY   70  40  33 CALM      30.18R
DOUGLAS        PTSUNNY   67  44  43 CALM      30.14R
SAFFORD        PTSUNNY   67  40  37 N3        30.08R
$$

AZZ532-181600-
SOUTHWEST ARIZONA

CITY           SKY/WX    TMP DP  RH WIND       PRES   REMARKS
YUMA           PTSUNNY   73  28  18 CALM      29.90R
$$

CAZ041-043-047-048-061-525>527-560>570-181600-
SOUTHERN CALIFORNIA

CITY           SKY/WX    TMP DP  RH WIND       PRES   REMARKS
DOWNTOWN L.A.  SUNNY     69  58  67 CALM      29.93R
L.A. AIRPORT   MOSUNNY   70  62  76 SE3       29.93R
SAN DIEGO      MOSUNNY   70  63  78 CALM      29.96R
BURBANK        SUNNY     68  51  54 SW7       29.95R
ONTARIO        MOSUNNY   67  43  41 CALM      29.95R
RIVERSIDE      MOSUNNY   65  45  48 NE5       29.95R
PALM SPRINGS   CLOUDY    77  42  28 CALM      29.90R
EL CENTRO NAS  PTSUNNY   73  32  22 CALM      29.88S
IMPERIAL       CLOUDY    74  34  23 SE3       29.87R
BLYTHE         CLOUDY    71  28  20 S3        29.92R
NEEDLES        MOSUNNY   68  15  13 CALM      29.96R
$$

NVZ020-UTZ003-181600-
SOUTHERN NEVADA-UTAH

CITY           SKY/WX    TMP DP  RH WIND       PRES   REMARKS
LAS VEGAS      PTSUNNY   63  19  18 CALM      30.03R
SALT LAKE CITY MOSUNNY   45  34  65 SE3       30.20R
$$

NMZ009-TXZ055-181600-
NEW MEXICO-WEST TEXAS

CITY           SKY/WX    TMP DP  RH WIND       PRES   REMARKS
ALBUQUERQUE    CLOUDY    52  22  30 N9        30.25R
EL PASO        PTSUNNY   67  45  45 CALM      30.15R
$$


........................KEY........................
SKY/WX - SKY CONDITION/WEATHER
TMP    - TEMPERATURE IN FAHRENHEIT
DP     - DEW POINT IN FAHRENHEIT
RH     - RELATIVE HUMIDITY IN PERCENT
WIND   - DIRECTION AND SPEED IN MILES PER HOUR (MPH)
VRB    - VARIABLE WIND DIRECTION
PRES   - MEAN SEA LEVEL PRESSURE IN INCHES OF MERCURY
         F - FALLING PRESSURE   R - RISING PRESSURE
         S - STEADY PRESSURE
VSB    - VISIBILITY IN MILES
HX     - HEAT INDEX IN FAHRENHEIT
WCI    - WIND CHILL INDEX IN FAHRENHEIT
TC     - TEMPERATURE IN CELSIUS WHICH IS ALSO KNOWN AS
         TEMPERATURE IN CENTIGRADE
AFB    - AIR FORCE BASE
         LUKE AFB IS LUKE AIR FORCE BASE
         DAVIS-MONTHAN IS DAVIS-MONTHAN AIR FORCE BASE
NAS    - NAVAL AIR STATION
         EL CENTRO NAS IS EL CENTRO NAVAL AIR STATION
N/A    - NOT AVAILABLE





USA.gov is the U.S. government's official web portal to all federal, state and local government web resources and services.